Satellite: CAPE1
Catalog number: 31130
Epoch time: 10181.50287584
Element set: 922
Inclination: 097.9355 deg
RA of node: 220.2105 deg
Eccentricity: 0.0102189
Arg of perigee: 191.8484 deg
Mean anomaly: 168.0368 deg
Mean motion: 14.52193616 rev/day
Decay rate: 2.39e-06 rev/day^2
Epoch rev: 16959
Checksum: 301
Satellite: COMPASS
Catalog number: 32787
Epoch time: 10181.20050385
Element set: 0713
Inclination: 097.8934 deg
RA of node: 245.7790 deg
Eccentricity: 0.0014709
Arg of perigee: 241.7957 deg
Mean anomaly: 118.1775 deg
Mean motion: 14.81896430 rev/day
Decay rate: 1.83e-06 rev/day^2
Epoch rev: 11742
Checksum: 312
Satellite: AAUSAT2
Catalog number: 32788
Epoch time: 10181.13478436
Element set: 0705
Inclination: 097.8939 deg
RA of node: 245.8463 deg
Eccentricity: 0.0014210
Arg of perigee: 243.1422 deg
Mean anomaly: 116.8401 deg
Mean motion: 14.82040580 rev/day
Decay rate: 2.54e-06 rev/day^2
Epoch rev: 11742
Checksum: 280
Satellite: DO-64
Catalog number: 32789
Epoch time: 10182.69512034
Element set: 722
Inclination: 097.8998 deg
RA of node: 247.8741 deg
Eccentricity: 0.0014558
Arg of perigee: 235.5215 deg
Mean anomaly: 124.4623 deg
Mean motion: 14.82195463 rev/day
Decay rate: 9.83e-06 rev/day^2
Epoch rev: 11765
Checksum: 336
Satellite: CO-66
Catalog number: 32791
Epoch time: 10182.71005432
Element set: 704
Inclination: 097.8953 deg
RA of node: 247.2808 deg
Eccentricity: 0.0014987
Arg of perigee: 235.5413 deg
Mean anomaly: 124.4883 deg
Mean motion: 14.81680787 rev/day
Decay rate: 3.43e-06 rev/day^2
Epoch rev: 66812
Checksum: 326
Satellite: RS-30
Catalog number: 32953
Epoch time: 10182.53693838
Element set: 831
Inclination: 082.5002 deg
RA of node: 020.7547 deg
Eccentricity: 0.0019931
Arg of perigee: 071.6172 deg
Mean anomaly: 288.7085 deg
Mean motion: 12.43005971 rev/day
Decay rate: 1.0e-07 rev/day^2
Epoch rev: 9552
Checksum: 286
Satellite: TACSAT-3
Catalog number: 35001
Epoch time: 10181.97172979
Element set: 0324
Inclination: 040.4528 deg
RA of node: 131.2953 deg
Eccentricity: 0.0019626
Arg of perigee: 106.9822 deg
Mean anomaly: 253.3146 deg
Mean motion: 15.41905388 rev/day
Decay rate: 4.554e-05 rev/day^2
Epoch rev: 06276
Checksum: 298
Satellite: PHARMSAT
Catalog number: 35002
Epoch time: 10181.92084552
Element set: 0307
Inclination: 040.4669 deg
RA of node: 129.5546 deg
Eccentricity: 0.0022648
Arg of perigee: 111.8414 deg
Mean anomaly: 248.4815 deg
Mean motion: 15.42420571 rev/day
Decay rate: 3.736e-05 rev/day^2
Epoch rev: 06277
Checksum: 281
Satellite: HAWKSAT1
Catalog number: 35003
Epoch time: 10181.93110625
Element set: 0331
Inclination: 040.4546 deg
RA of node: 123.8890 deg
Eccentricity: 0.0020149
Arg of perigee: 127.0313 deg
Mean anomaly: 233.2358 deg
Mean motion: 15.45621313 rev/day
Decay rate: 8.953e-05 rev/day^2
Epoch rev: 06284
Checksum: 254
Satellite: CP6
Catalog number: 35004
Epoch time: 10181.92051447
Element set: 0325
Inclination: 040.4595 deg
RA of node: 122.9279 deg
Eccentricity: 0.0019258
Arg of perigee: 132.0572 deg
Mean anomaly: 228.1896 deg
Mean motion: 15.46485833 rev/day
Decay rate: 1.0032e-04 rev/day^2
Epoch rev: 06284
Checksum: 291
Satellite: AEROCUB3
Catalog number: 35005
Epoch time: 10182.82763045
Element set: 363
Inclination: 040.4690 deg
RA of node: 114.2611 deg
Eccentricity: 0.0017013
Arg of perigee: 159.2173 deg
Mean anomaly: 200.9347 deg
Mean motion: 15.52184970 rev/day
Decay rate: 3.2718e-04 rev/day^2
Epoch rev: 6302
Checksum: 260
Satellite: DRAGNSAT
Catalog number: 35690
Epoch time: 10076.22711312
Element set: 316
Inclination: 051.6170 deg
RA of node: 315.4586 deg
Eccentricity: 0.0004999
Arg of perigee: 310.9891 deg
Mean anomaly: 057.3269 deg
Mean motion: 16.42150010 rev/day
Decay rate: 5.715194e-02 rev/day^2
Epoch rev: 3656
Checksum: 289
Satellite: POLLUX
Catalog number: 35693
Epoch time: 10087.99866888
Element set: 352
Inclination: 051.6099 deg
RA of node: 254.5746 deg
Eccentricity: 0.0006270
Arg of perigee: 294.4866 deg
Mean anomaly: 097.5899 deg
Mean motion: 16.52338462 rev/day
Decay rate: 2.3496735e-01 rev/day^2
Epoch rev: 3839
Checksum: 384
Satellite: CASTOR
Catalog number: 35694
Epoch time: 10182.78538706
Element set: 520
Inclination: 051.6322 deg
RA of node: 121.7936 deg
Eccentricity: 0.0001362
Arg of perigee: 044.5801 deg
Mean anomaly: 315.5321 deg
Mean motion: 16.05351770 rev/day
Decay rate: 1.20917e-03 rev/day^2
Epoch rev: 5340
Checksum: 265
Satellite: METEOR-M
Catalog number: 35865
Epoch time: 10182.56045825
Element set: 431
Inclination: 098.7577 deg
RA of node: 236.2566 deg
Eccentricity: 0.0002403
Arg of perigee: 345.6614 deg
Mean anomaly: 014.4493 deg
Mean motion: 14.21830849 rev/day
Decay rate: 1.76e-06 rev/day^2
Epoch rev: 4076
Checksum: 299
